This is the latest recevied weather packets stored in our database for station/object XW7RMR. If no packets are shown the sender has not sent any weather packets the latest 10 day(s).
| Time | Temp. | Humidity | Pressure | Rain* | Wind** | Luminosity | Snow |
|---|---|---|---|---|---|---|---|
| 1777842651 | 31.11° C | 32% | 1007.7 hPa | 0 mm | - | 790 W/m² | - |
| 1777842349 | 30.56° C | 33% | 1007.7 hPa | 0 mm | - | 797 W/m² | - |
| 1777842044 | 31.67° C | 32% | 1007.9 hPa | 0 mm | - | 801 W/m² | - |
| 1777841741 | 30.56° C | 33% | 1007.9 hPa | 0 mm | - | 807 W/m² | - |
| 1777841438 | 30.56° C | 34% | 1008 hPa | 0 mm | - | 811 W/m² | - |
| 1777841134 | 30° C | 32% | 1008.2 hPa | 0 mm | - | 813 W/m² | - |
| 1777840831 | 30.56° C | 33% | 1008.2 hPa | 0 mm | - | 817 W/m² | - |
| 1777840529 | 30° C | 34% | 1008.1 hPa | 0 mm | - | 820 W/m² | - |
| 1777840226 | 30° C | 36% | 1008.4 hPa | 0 mm | - | 822 W/m² | - |
| 1777839924 | 30.56° C | 33% | 1008.3 hPa | 0 mm | - | 824 W/m² | - |
| 1777839621 | 30° C | 35% | 1008.3 hPa | 0 mm | - | 824 W/m² | - |
| 1777839320 | 30° C | 35% | 1008.3 hPa | 0 mm | - | 824 W/m² | - |
| 1777839016 | 29.44° C | 35% | 1008.5 hPa | 0 mm | - | 826 W/m² | - |
| 1777838712 | 28.89° C | 35% | 1008.5 hPa | 0 mm | - | 826 W/m² | - |
| 1777838409 | 28.89° C | 36% | 1008.6 hPa | 0 mm | - | 825 W/m² | - |
| 1777838107 | 28.89° C | 35% | 1008.7 hPa | 0 mm | - | 824 W/m² | - |
| 1777837803 | 28.89° C | 37% | 1008.8 hPa | 0 mm | - | 823 W/m² | - |
| 1777837500 | 28.89° C | 37% | 1008.7 hPa | 0 mm | - | 821 W/m² | - |
| 1777837195 | 28.89° C | 36% | 1008.7 hPa | 0 mm | - | 818 W/m² | - |
| 1777836891 | 27.78° C | 39% | 1008.8 hPa | 0 mm | - | 815 W/m² | - |
| 1777836587 | 27.78° C | 38% | 1008.9 hPa | 0 mm | - | 811 W/m² | - |
| 1777836283 | 28.33° C | 38% | 1008.9 hPa | 0 mm | - | 808 W/m² | - |
| 1777835979 | 28.33° C | 39% | 1009.1 hPa | 0 mm | - | 802 W/m² | - |
| 1777835677 | 27.78° C | 39% | 1009 hPa | 0 mm | - | 797 W/m² | - |
| 1777835373 | 27.78° C | 40% | 1009 hPa | 0 mm | - | 792 W/m² | - |
* Rain latest hour (hover to see other rain measurements)
** Current wind speed in m/s (hover to see current wind gust speed)